Location: The Saddle
(36.8333°N, 80.3417°W)
Time: 07:22:11
(UTC-04:00)

Courier 1B - Pass Details

Date: 24 September 2024
Orbit: 962 x 1208 km, 28.3° (Epoch: 05 October)

Event Time Altitude Azimuth Distance (km) Brightness Sun altitude
Rises 13:55:50 0° 257° (WSW) 3,680 10.8 51.0°
Reaches altitude 10° 13:58:35 10° 250° (WSW) 2,756 10.4 50.9°
Maximum altitude 14:04:47 41° 182° (S) 1,452 10.4 50.4°
Drops below altitude 10° 14:11:21 10° 115° (ESE) 2,913 10.1 50.0°
Sets 14:14:20 0° 108° (ESE) 3,910 10.6 49.7°
